| time (UTC) | temp F | wind direction | speed knots | gust knots | rain 1hr in | rain 24hr in | rain mn in | humidity % | barometer mb |
| 20260906121959 | 67 | 116 | 0.9 | 1.7 | 0.00 | 0.00 | 0.00 | 99 | 1018.4 |
| 20260906121455 | 67 | 102 | 0.9 | 2.6 | 0.00 | 0.00 | 0.00 | 98 | 1018.5 |
| 20260906120952 | 67 | 89 | 0.9 | 2.6 | 0.00 | 0.00 | 0.00 | 98 | 1018.5 |
| 20260906120447 | 67 | 71 | 1.7 | 3.5 | 0.00 | 0.00 | 0.00 | 98 | 1018.5 |
| 20260906115943 | 67 | 45 | 2.6 | 3.5 | 0.00 | 0.00 | 0.00 | 98 | 1018.5 |
| 20260906115438 | 67 | 96 | 1.7 | 3.5 | 0.00 | 0.00 | 0.00 | 98 | 1018.3 |
| 20260906114939 | 67 | 68 | 2.6 | 5.2 | 0.00 | 0.00 | 0.00 | 98 | 1018.1 |
| 20260906114438 | 67 | 60 | 1.7 | 6.1 | 0.00 | 0.00 | 0.00 | 98 | 1017.9 |
| 20260906113934 | 67 | 61 | 4.3 | 7.0 | 0.00 | 0.00 | 0.00 | 98 | 1017.8 |
| 20260906113432 | 67 | 69 | 4.3 | 6.1 | 0.00 | 0.00 | 0.00 | 98 | 1017.9 |
| 20260906112928 | 66 | 35 | 2.6 | 3.5 | 0.00 | 0.00 | 0.00 | 98 | 1017.7 |
| 20260906112424 | 66 | 78 | 1.7 | 3.5 | 0.00 | 0.00 | 0.00 | 98 | 1017.8 |
| 20260906111919 | 66 | 75 | 1.7 | 3.5 | 0.00 | 0.00 | 0.00 | 98 | 1017.8 |
| 20260906111419 | 66 | 82 | 0.9 | 2.6 | 0.00 | 0.00 | 0.00 | 98 | 1017.8 |
| 20260906110914 | 66 | 24 | 3.5 | 5.2 | 0.00 | 0.00 | 0.00 | 98 | 1017.7 |
| 20260906110409 | 66 | 62 | 4.3 | 5.2 | 0.00 | 0.00 | 0.00 | 98 | 1017.5 |
| 20260906105908 | 66 | 82 | 2.6 | 5.2 | 0.00 | 0.00 | 0.00 | 98 | 1017.5 |
| 20260906105404 | 66 | 86 | 1.7 | 3.5 | 0.00 | 0.00 | 0.00 | 98 | 1017.5 |
| 20260906104900 | 66 | 112 | 1.7 | 3.5 | 0.00 | 0.00 | 0.00 | 98 | 1017.6 |
| 20260906104358 | 66 | 42 | 3.5 | 3.5 | 0.00 | 0.00 | 0.00 | 98 | 1017.5 |
| 20260906103857 | 66 | 135 | 0.9 | 3.5 | 0.00 | 0.00 | 0.00 | 98 | 1017.4 |
| 20260906103355 | 66 | 56 | 2.6 | 3.5 | 0.00 | 0.00 | 0.00 | 98 | 1017.5 |
| 20260906102852 | 66 | 53 | 1.7 | 5.2 | 0.00 | 0.00 | 0.00 | 98 | 1017.4 |
| 20260906102350 | 66 | 99 | 0.0 | 3.5 | 0.00 | 0.00 | 0.00 | 98 | 1017.2 |
| 20260906101846 | 65 | 45 | 1.7 | 3.5 | 0.00 | 0.00 | 0.00 | 98 | 1017.3 |
| 20260906101341 | 65 | 31 | 2.6 | 3.5 | 0.00 | 0.00 | 0.00 | 98 | 1017.2 |
| 20260906100837 | 65 | 26 | 2.6 | 5.2 | 0.00 | 0.00 | 0.00 | 98 | 1017.1 |
| 20260906100335 | 65 | 103 | 1.7 | 2.6 | 0.00 | 0.00 | 0.00 | 97 | 1017.2 |
| 20260906095831 | 65 | 45 | 0.9 | 3.5 | 0.00 | 0.00 | 0.00 | 97 | 1017.2 |
| 20260906095326 | 65 | 9 | 3.5 | 5.2 | 0.00 | 0.00 | 0.00 | 97 | 1017.2 |
| 20260906094826 | 65 | 46 | 3.5 | 3.5 | 0.00 | 0.00 | 0.00 | 97 | 1017.3 |
| 20260906094320 | 65 | 94 | 1.7 | 5.2 | 0.00 | 0.00 | 0.00 | 97 | 1017.1 |
| 20260906093817 | 65 | 138 | 2.6 | 3.5 | 0.00 | 0.00 | 0.00 | 97 | 1017.0 |
| 20260906093313 | 64 | 126 | 0.9 | 1.7 | 0.00 | 0.00 | 0.00 | 97 | 1017.1 |
| 20260906092808 | 64 | 210 | 0.0 | 1.7 | 0.00 | 0.00 | 0.00 | 97 | 1017.2 |
| 20260906092307 | 64 | 149 | 0.0 | 0.0 | 0.00 | 0.00 | 0.00 | 97 | 1017.1 |
| 20260906091803 | 64 | 159 | 0.0 | 0.9 | 0.00 | 0.00 | 0.00 | 97 | 1016.9 |
| 20260906091259 | 65 | 160 | 0.0 | 0.9 | 0.00 | 0.00 | 0.00 | 97 | 1016.9 |
| 20260906090755 | 65 | 93 | 0.0 | 0.9 | 0.00 | 0.00 | 0.00 | 97 | 1016.8 |
| 20260906090254 | 65 | 134 | 0.0 | 0.9 | 0.00 | 0.00 | 0.00 | 97 | 1017.0 |
| 20260906085754 | 65 | 77 | 1.7 | 1.7 | 0.00 | 0.00 | 0.00 | 97 | 1017.0 |
| 20260906085253 | 65 | 129 | 0.0 | 2.6 | 0.00 | 0.00 | 0.00 | 97 | 1017.0 |
| 20260906084748 | 65 | 351 | 0.9 | 2.6 | 0.00 | 0.00 | 0.00 | 97 | 1017.2 |
| 20260906084248 | 65 | 125 | 0.9 | 2.6 | 0.00 | 0.00 | 0.00 | 96 | 1017.0 |
| 20260906083743 | 65 | 161 | 1.7 | 1.7 | 0.00 | 0.00 | 0.00 | 96 | 1017.1 |
| 20260906083238 | 65 | 357 | 0.9 | 2.6 | 0.00 | 0.00 | 0.00 | 96 | 1017.1 |
| 20260906082733 | 66 | 356 | 1.7 | 1.7 | 0.00 | 0.00 | 0.00 | 96 | 1017.0 |
| 20260906082228 | 66 | 131 | 0.0 | 0.9 | 0.00 | 0.00 | 0.00 | 96 | 1016.9 |
| 20260906081724 | 66 | 109 | 0.9 | 2.6 | 0.00 | 0.00 | 0.00 | 96 | 1017.0 |
| 20260906081219 | 66 | 33 | 2.6 | 2.6 | 0.00 | 0.00 | 0.00 | 96 | 1017.1 |
| 20260906080716 | 66 | 359 | 0.9 | 1.7 | 0.00 | 0.00 | 0.00 | 96 | 1017.1 |
| 20260906080212 | 66 | 143 | 0.0 | 1.7 | 0.00 | 0.00 | 0.00 | 96 | 1017.1 |
| 20260906075712 | 66 | 122 | 0.9 | 1.7 | 0.00 | 0.00 | 0.00 | 96 | 1017.0 |
| 20260906075206 | 66 | 9 | 1.7 | 1.7 | 0.00 | 0.00 | 0.00 | 96 | 1017.1 |
| 20260906074701 | 66 | 146 | 0.9 | 2.6 | 0.00 | 0.00 | 0.00 | 96 | 1017.3 |
| 20260906074200 | 66 | 351 | 1.7 | 3.5 | 0.00 | 0.00 | 0.00 | 95 | 1017.0 |
| 20260906073655 | 66 | 3 | 1.7 | 1.7 | 0.00 | 0.00 | 0.00 | 95 | 1017.3 |
| 20260906073151 | 66 | 74 | 0.9 | 1.7 | 0.00 | 0.00 | 0.00 | 95 | 1017.1 |
| 20260906072647 | 66 | 120 | 0.9 | 1.7 | 0.00 | 0.00 | 0.00 | 95 | 1017.3 |
| 20260906072142 | 66 | 152 | 0.9 | 1.7 | 0.00 | 0.00 | 0.00 | 95 | 1017.2 |
| 20260906071638 | 67 | 151 | 0.0 | 0.0 | 0.00 | 0.00 | 0.00 | 95 | 1017.3 |
| 20260906071138 | 67 | 111 | 0.0 | 0.9 | 0.00 | 0.00 | 0.00 | 94 | 1017.2 |
| 20260906070635 | 67 | 94 | 0.9 | 1.7 | 0.00 | 0.00 | 0.00 | 94 | 1017.2 |
| 20260906070130 | 67 | 136 | 0.0 | 0.9 | 0.00 | 0.00 | 0.00 | 94 | 1017.3 |
| 20260906065630 | 68 | 135 | 0.0 | 0.9 | 0.00 | 0.00 | 0.00 | 94 | 1017.2 |
| 20260906065125 | 68 | 127 | 0.0 | 1.7 | 0.00 | 0.00 | 0.00 | 94 | 1017.3 |
| 20260906064620 | 68 | 120 | 0.0 | 2.6 | 0.00 | 0.00 | 0.00 | 93 | 1017.2 |
| 20260906064115 | 68 | 72 | 1.7 | 3.5 | 0.00 | 0.00 | 0.00 | 93 | 1017.1 |
| 20260906063610 | 68 | 102 | 0.9 | 2.6 | 0.00 | 0.00 | 0.00 | 93 | 1017.3 |
| 20260906063106 | 69 | 37 | 1.7 | 2.6 | 0.00 | 0.00 | 0.00 | 93 | 1017.4 |
| 20260906062602 | 69 | 88 | 1.7 | 7.0 | 0.00 | 0.00 | 0.00 | 93 | 1017.2 |
| 20260906062101 | 69 | 43 | 2.6 | 5.2 | 0.00 | 0.00 | 0.00 | 92 | 1017.4 |
| 20260906061557 | 69 | 53 | 2.6 | 6.1 | 0.00 | 0.00 | 0.00 | 92 | 1017.3 |
| 20260906061056 | 69 | 38 | 1.7 | 5.2 | 0.00 | 0.00 | 0.00 | 92 | 1017.3 |
| 20260906060553 | 69 | 69 | 2.6 | 5.2 | 0.00 | 0.00 | 0.00 | 92 | 1017.2 |
| 20260906060050 | 69 | 64 | 1.7 | 5.2 | 0.00 | 0.00 | 0.00 | 92 | 1017.1 |
| 20260906055546 | 69 | 42 | 2.6 | 6.1 | 0.00 | 0.00 | 0.00 | 91 | 1017.2 |
| 20260906055041 | 69 | 100 | 2.6 | 3.5 | 0.00 | 0.00 | 0.00 | 91 | 1017.3 |
| 20260906054541 | 69 | 47 | 1.7 | 3.5 | 0.00 | 0.00 | 0.00 | 91 | 1017.2 |
| 20260906054036 | 69 | 48 | 1.7 | 5.2 | 0.00 | 0.00 | 0.00 | 91 | 1017.3 |
| 20260906053532 | 69 | 128 | 1.7 | 3.5 | 0.00 | 0.00 | 0.00 | 91 | 1017.2 |
| 20260906053028 | 69 | 62 | 0.9 | 5.2 | 0.00 | 0.00 | 0.00 | 91 | 1017.3 |
| 20260906052523 | 69 | 68 | 1.7 | 3.5 | 0.00 | 0.00 | 0.00 | 91 | 1017.1 |
| 20260906052020 | 69 | 35 | 2.6 | 5.2 | 0.00 | 0.00 | 0.00 | 90 | 1017.1 |
| 20260906051516 | 70 | 92 | 2.6 | 5.2 | 0.00 | 0.00 | 0.00 | 90 | 1017.0 |
| 20260906051011 | 70 | 49 | 2.6 | 6.1 | 0.00 | 0.00 | 0.00 | 90 | 1016.9 |
| 20260906050506 | 70 | 47 | 3.5 | 5.2 | 0.00 | 0.00 | 0.00 | 90 | 1017.0 |
| 20260906050006 | 70 | 83 | 2.6 | 7.0 | 0.00 | 0.00 | 0.00 | 90 | 1017.0 |
| 20260906045504 | 69 | 49 | 2.6 | 3.5 | 0.00 | 0.00 | 0.00 | 90 | 1017.0 |
| 20260906045000 | 69 | 46 | 2.6 | 6.1 | 0.00 | 0.00 | 0.00 | 90 | 1016.9 |
| 20260906044455 | 69 | 52 | 3.5 | 5.2 | 0.00 | 0.00 | 0.00 | 90 | 1016.8 |
| 20260906043951 | 70 | 53 | 2.6 | 5.2 | 0.00 | 0.00 | 0.00 | 90 | 1016.9 |
| 20260906043446 | 70 | 74 | 2.6 | 3.5 | 0.00 | 0.00 | 0.00 | 90 | 1017.0 |
| 20260906042942 | 70 | 39 | 1.7 | 6.1 | 0.00 | 0.00 | 0.00 | 90 | 1016.8 |
| 20260906042441 | 70 | 66 | 1.7 | 6.1 | 0.00 | 0.00 | 0.00 | 90 | 1016.7 |
| 20260906041936 | 70 | 64 | 1.7 | 3.5 | 0.00 | 0.00 | 0.00 | 90 | 1016.8 |
| 20260906041432 | 70 | 61 | 2.6 | 5.2 | 0.00 | 0.00 | 0.00 | 90 | 1016.7 |
| 20260906040932 | 70 | 46 | 2.6 | 3.5 | 0.00 | 0.00 | 0.00 | 90 | 1016.6 |
| 20260906040427 | 70 | 60 | 1.7 | 6.1 | 0.00 | 0.00 | 0.00 | 90 | 1016.4 |
| 20260906035922 | 70 | 34 | 1.7 | 5.2 | 0.00 | 0.00 | 0.00 | 90 | 1016.5 |
| 20260906035418 | 69 | 29 | 1.7 | 5.2 | 0.00 | 0.00 | 0.00 | 91 | 1016.4 |
| 20260906034913 | 69 | 56 | 2.6 | 3.5 | 0.00 | 0.00 | 0.00 | 91 | 1016.3 |
| 20260906034413 | 69 | 79 | 3.5 | 6.1 | 0.00 | 0.00 | 0.00 | 91 | 1016.3 |
| 20260906033908 | 69 | 101 | 1.7 | 3.5 | 0.00 | 0.00 | 0.00 | 91 | 1016.2 |
| 20260906033408 | 69 | 54 | 2.6 | 3.5 | 0.00 | 0.00 | 0.00 | 91 | 1016.1 |
| 20260906032904 | 69 | 47 | 2.6 | 3.5 | 0.00 | 0.00 | 0.00 | 90 | 1016.1 |
| 20260906032400 | 70 | 44 | 1.7 | 5.2 | 0.00 | 0.00 | 0.00 | 90 | 1015.8 |
| 20260906031855 | 70 | 65 | 3.5 | 5.2 | 0.00 | 0.00 | 0.00 | 89 | 1015.9 |
| 20260906031350 | 70 | 43 | 2.6 | 3.5 | 0.00 | 0.00 | 0.00 | 89 | 1015.9 |
| 20260906030846 | 70 | 53 | 2.6 | 6.1 | 0.00 | 0.00 | 0.00 | 88 | 1015.9 |
| 20260906030341 | 71 | 48 | 2.6 | 7.0 | 0.00 | 0.00 | 0.00 | 87 | 1015.8 |
| 20260906025840 | 71 | 53 | 3.5 | 6.1 | 0.00 | 0.00 | 0.00 | 87 | 1015.7 |
| 20260906025334 | 71 | 46 | 4.3 | 7.8 | 0.00 | 0.00 | 0.00 | 88 | 1015.9 |
| 20260906024834 | 71 | 43 | 2.6 | 6.1 | 0.00 | 0.00 | 0.00 | 88 | 1015.9 |
| 20260906024333 | 71 | 38 | 4.3 | 7.0 | 0.00 | 0.00 | 0.00 | 88 | 1016.0 |
| 20260906023829 | 71 | 60 | 2.6 | 8.7 | 0.00 | 0.00 | 0.00 | 88 | 1016.0 |
| 20260906023325 | 71 | 55 | 2.6 | 7.0 | 0.00 | 0.00 | 0.00 | 88 | 1015.7 |
| 20260906022820 | 71 | 44 | 4.3 | 6.1 | 0.00 | 0.00 | 0.00 | 88 | 1015.6 |
| 20260906022315 | 71 | 70 | 3.5 | 3.5 | 0.00 | 0.00 | 0.00 | 88 | 1015.9 |
| 20260906021811 | 71 | 49 | 3.5 | 7.0 | 0.00 | 0.00 | 0.00 | 88 | 1015.8 |
| 20260906021310 | 71 | 36 | 3.5 | 7.0 | 0.00 | 0.00 | 0.00 | 88 | 1015.8 |
| 20260906020810 | 71 | 39 | 4.3 | 7.8 | 0.00 | 0.00 | 0.00 | 88 | 1015.7 |
| 20260906020309 | 71 | 79 | 2.6 | 3.5 | 0.00 | 0.00 | 0.00 | 89 | 1015.8 |
| 20260906015804 | 71 | 50 | 2.6 | 5.2 | 0.00 | 0.00 | 0.00 | 89 | 1015.9 |
| 20260906015305 | 71 | 52 | 3.5 | 5.2 | 0.00 | 0.00 | 0.00 | 89 | 1015.9 |
| 20260906014803 | 71 | 70 | 1.7 | 5.2 | 0.00 | 0.00 | 0.00 | 89 | 1015.7 |
| 20260906014258 | 71 | 60 | 2.6 | 5.2 | 0.00 | 0.00 | 0.00 | 89 | 1015.9 |
| 20260906013754 | 71 | 76 | 1.7 | 3.5 | 0.00 | 0.00 | 0.00 | 89 | 1015.9 |
| 20260906013249 | 71 | 48 | 2.6 | 5.2 | 0.00 | 0.00 | 0.00 | 89 | 1015.7 |
| 20260906012744 | 71 | 51 | 3.5 | 6.1 | 0.00 | 0.00 | 0.00 | 89 | 1015.8 |
| 20260906012239 | 71 | 47 | 2.6 | 6.1 | 0.00 | 0.00 | 0.00 | 89 | 1015.9 |
| 20260906011735 | 70 | 45 | 4.3 | 6.1 | 0.00 | 0.00 | 0.00 | 90 | 1015.8 |
| 20260906011234 | 71 | 72 | 4.3 | 7.0 | 0.00 | 0.00 | 0.00 | 90 | 1015.7 |
| 20260906010730 | 71 | 57 | 3.5 | 8.7 | 0.00 | 0.00 | 0.00 | 89 | 1015.7 |
| 20260906010226 | 71 | 21 | 5.2 | 8.7 | 0.00 | 0.00 | 0.00 | 89 | 1015.7 |
| 20260906005721 | 71 | 40 | 3.5 | 6.1 | 0.00 | 0.00 | 0.00 | 89 | 1015.6 |
| 20260906005220 | 71 | 9 | 5.2 | 7.8 | 0.00 | 0.00 | 0.00 | 88 | 1015.5 |
| 20260906004719 | 72 | 47 | 5.2 | 7.8 | 0.00 | 0.00 | 0.00 | 88 | 1015.4 |
| 20260906004214 | 72 | 31 | 3.5 | 7.0 | 0.00 | 0.00 | 0.00 | 87 | 1015.6 |
| 20260906003709 | 72 | 24 | 4.3 | 6.1 | 0.00 | 0.00 | 0.00 | 87 | 1015.4 |
| 20260906003206 | 72 | 45 | 2.6 | 2.6 | 0.00 | 0.00 | 0.00 | 87 | 1015.5 |
| 20260906002705 | 73 | 45 | 2.6 | 2.6 | 0.00 | 0.00 | 0.00 | 86 | 1015.5 |
| 20260906002200 | 73 | 243 | 3.5 | 6.1 | 0.00 | 0.00 | 0.00 | 85 | 1015.4 |
| 20260906001655 | 74 | 38 | 3.5 | 6.1 | 0.00 | 0.00 | 0.00 | 85 | 1015.3 |
| 20260906001155 | 74 | 74 | 3.5 | 9.6 | 0.00 | 0.00 | 0.00 | 84 | 1015.2 |
| 20260906000651 | 75 | 31 | 5.2 | 8.7 | 0.00 | 0.00 | 0.00 | 83 | 1015.3 |
| 20260906000146 | 75 | 42 | 4.3 | 7.8 | 0.00 | 0.00 | 0.00 | 83 | 1015.1 |
| 20260905235645 | 75 | 72 | 2.6 | 6.1 | 0.00 | 0.00 | 0.00 | 83 | 1015.2 |
| 20260905235140 | 76 | 29 | 5.2 | 9.6 | 0.00 | 0.00 | 0.00 | 83 | 1015.1 |
| 20260905234636 | 76 | 34 | 3.5 | 7.0 | 0.00 | 0.00 | 0.00 | 82 | 1015.2 |
| 20260905234131 | 77 | 27 | 4.3 | 7.0 | 0.00 | 0.00 | 0.00 | 81 | 1014.9 |
| 20260905233632 | 77 | 334 | 5.2 | 12.2 | 0.00 | 0.00 | 0.00 | 81 | 1014.8 |
| 20260905233126 | 77 | 22 | 4.3 | 8.7 | 0.00 | 0.00 | 0.00 | 81 | 1015.0 |
| 20260905232621 | 77 | 98 | 5.2 | 8.7 | 0.00 | 0.00 | 0.00 | 81 | 1014.8 |
| 20260905232117 | 78 | 43 | 2.6 | 6.1 | 0.00 | 0.00 | 0.00 | 80 | 1014.4 |
| 20260905231617 | 79 | 49 | 1.7 | 6.1 | 0.00 | 0.00 | 0.00 | 78 | 1014.5 |
| 20260905231113 | 80 | 50 | 3.5 | 7.8 | 0.00 | 0.00 | 0.00 | 75 | 1014.4 |
| 20260905230609 | 81 | 69 | 7.0 | 9.6 | 0.00 | 0.00 | 0.00 | 73 | 1014.8 |
| 20260905230107 | 80 | 152 | 1.7 | 5.2 | 0.00 | 0.00 | 0.00 | 74 | 1014.5 |
| 20260905225606 | 80 | 42 | 1.7 | 3.5 | 0.00 | 0.00 | 0.00 | 75 | 1014.4 |
| 20260905225102 | 80 | 18 | 2.6 | 3.5 | 0.00 | 0.00 | 0.00 | 75 | 1014.4 |
| 20260905224601 | 80 | 17 | 2.6 | 5.2 | 0.00 | 0.00 | 0.00 | 74 | 1014.3 |
| 20260905224101 | 81 | 23 | 3.5 | 5.2 | 0.00 | 0.00 | 0.00 | 72 | 1014.4 |
| 20260905223558 | 82 | 30 | 4.3 | 7.0 | 0.00 | 0.00 | 0.00 | 70 | 1014.3 |
| 20260905223054 | 82 | 85 | 3.5 | 6.1 | 0.00 | 0.00 | 0.00 | 70 | 1014.2 |
| 20260905222554 | 81 | 42 | 2.6 | 2.6 | 0.00 | 0.00 | 0.00 | 72 | 1014.3 |
| 20260905222049 | 82 | 196 | 2.6 | 6.1 | 0.00 | 0.00 | 0.00 | 70 | 1014.2 |
| 20260905221546 | 82 | 18 | 2.6 | 2.6 | 0.00 | 0.00 | 0.00 | 70 | 1014.4 |
| 20260905221041 | 82 | 212 | 1.7 | 3.5 | 0.00 | 0.00 | 0.00 | 70 | 1014.2 |
| 20260905220537 | 82 | 24 | 3.5 | 5.2 | 0.00 | 0.00 | 0.00 | 70 | 1014.2 |
| 20260905220033 | 82 | 267 | 0.9 | 2.6 | 0.00 | 0.00 | 0.00 | 71 | 1014.3 |
| 20260905215532 | 82 | 51 | 1.7 | 7.0 | 0.00 | 0.00 | 0.00 | 70 | 1014.2 |
| 20260905215029 | 82 | 53 | 4.3 | 7.8 | 0.00 | 0.00 | 0.00 | 70 | 1014.2 |
| 20260905214524 | 82 | 37 | 2.6 | 7.0 | 0.00 | 0.00 | 0.00 | 72 | 1014.1 |
| 20260905214019 | 82 | 65 | 1.7 | 6.1 | 0.00 | 0.00 | 0.00 | 73 | 1014.2 |
| 20260905213514 | 82 | 20 | 3.5 | 3.5 | 0.00 | 0.00 | 0.00 | 71 | 1014.2 |
| 20260905213010 | 82 | 31 | 1.7 | 7.0 | 0.00 | 0.00 | 0.00 | 70 | 1014.0 |
| 20260905212505 | 82 | 31 | 5.2 | 7.0 | 0.00 | 0.00 | 0.00 | 71 | 1014.4 |
| 20260905212004 | 83 | 56 | 0.9 | 3.5 | 0.00 | 0.00 | 0.00 | 71 | 1014.5 |
| 20260905211459 | 82 | 52 | 1.7 | 6.1 | 0.00 | 0.00 | 0.00 | 72 | 1014.4 |
| 20260905210955 | 82 | 18 | 1.7 | 3.5 | 0.00 | 0.00 | 0.00 | 72 | 1014.3 |
| 20260905210451 | 81 | 102 | 0.0 | 2.6 | 0.00 | 0.00 | 0.00 | 75 | 1014.4 |
| 20260905205950 | 81 | 35 | 4.3 | 5.2 | 0.00 | 0.00 | 0.00 | 74 | 1014.4 |
| 20260905205445 | 80 | 55 | 3.5 | 3.5 | 0.00 | 0.00 | 0.00 | 76 | 1014.5 |
| 20260905204943 | 80 | 62 | 2.6 | 6.1 | 0.00 | 0.00 | 0.00 | 76 | 1014.8 |
| 20260905204439 | 79 | 37 | 2.6 | 3.5 | 0.00 | 0.00 | 0.00 | 79 | 1014.8 |
| 20260905203938 | 80 | 38 | 1.7 | 5.2 | 0.00 | 0.00 | 0.00 | 77 | 1014.8 |
| 20260905203434 | 81 | 46 | 1.7 | 5.2 | 0.00 | 0.00 | 0.00 | 76 | 1014.8 |
| 20260905202930 | 80 | 279 | 3.5 | 7.0 | 0.00 | 0.00 | 0.00 | 76 | 1014.8 |
| 20260905202425 | 80 | 44 | 3.5 | 5.2 | 0.00 | 0.00 | 0.00 | 78 | 1014.9 |
| 20260905201920 | 80 | 71 | 3.5 | 6.1 | 0.00 | 0.00 | 0.00 | 79 | 1014.8 |
| 20260905201416 | 79 | 59 | 3.5 | 7.0 | 0.00 | 0.00 | 0.00 | 80 | 1014.9 |
| 20260905200915 | 78 | 75 | 2.6 | 3.5 | 0.00 | 0.00 | 0.00 | 82 | 1014.9 |
| 20260905200411 | 78 | 47 | 4.3 | 7.0 | 0.00 | 0.00 | 0.00 | 82 | 1014.9 |
| 20260905195909 | 78 | 85 | 2.6 | 7.0 | 0.00 | 0.00 | 0.00 | 83 | 1014.9 |
| 20260905195404 | 79 | 24 | 4.3 | 6.1 | 0.00 | 0.00 | 0.00 | 81 | 1015.0 |
| 20260905194900 | 79 | 50 | 2.6 | 7.0 | 0.00 | 0.00 | 0.00 | 81 | 1014.6 |
| 20260905194400 | 78 | 19 | 1.7 | 8.7 | 0.00 | 0.00 | 0.00 | 83 | 1014.9 |
| 20260905193900 | 78 | 42 | 3.5 | 7.0 | 0.00 | 0.00 | 0.00 | 83 | 1014.9 |
| 20260905193354 | 78 | 21 | 7.0 | 9.6 | 0.00 | 0.00 | 0.00 | 82 | 1015.0 |
| 20260905192850 | 78 | 49 | 5.2 | 7.8 | 0.00 | 0.00 | 0.00 | 83 | 1014.9 |
| 20260905192346 | 78 | 57 | 2.6 | 6.1 | 0.00 | 0.00 | 0.00 | 83 | 1014.8 |
| 20260905191845 | 79 | 29 | 3.5 | 6.1 | 0.00 | 0.00 | 0.00 | 83 | 1014.9 |
| 20260905191344 | 79 | 74 | 6.1 | 7.0 | 0.00 | 0.00 | 0.00 | 83 | 1014.9 |
| 20260905190843 | 79 | 28 | 4.3 | 7.0 | 0.00 | 0.00 | 0.00 | 82 | 1014.9 |
| 20260905190342 | 79 | 50 | 2.6 | 8.7 | 0.00 | 0.00 | 0.00 | 82 | 1014.9 |
| 20260905185841 | 80 | 25 | 5.2 | 7.0 | 0.00 | 0.00 | 0.00 | 79 | 1015.1 |
| 20260905185337 | 80 | 26 | 5.2 | 6.1 | 0.00 | 0.00 | 0.00 | 78 | 1015.0 |
| 20260905184835 | 80 | 90 | 0.9 | 6.1 | 0.00 | 0.00 | 0.00 | 80 | 1015.2 |
| 20260905184335 | 80 | 16 | 2.6 | 6.1 | 0.00 | 0.00 | 0.00 | 80 | 1015.1 |
| 20260905183834 | 80 | 14 | 3.5 | 7.0 | 0.00 | 0.00 | 0.00 | 78 | 1015.1 |
| 20260905183329 | 81 | 344 | 5.2 | 7.0 | 0.00 | 0.00 | 0.00 | 78 | 1015.1 |
| 20260905182824 | 81 | 18 | 2.6 | 7.0 | 0.00 | 0.00 | 0.00 | 79 | 1015.0 |
| 20260905182323 | 80 | 29 | 2.6 | 7.0 | 0.00 | 0.00 | 0.00 | 80 | 1015.0 |
| 20260905181819 | 81 | 48 | 4.3 | 7.0 | 0.00 | 0.00 | 0.00 | 78 | 1015.2 |
| 20260905181318 | 81 | 21 | 2.6 | 6.1 | 0.00 | 0.00 | 0.00 | 78 | 1015.2 |
| 20260905180818 | 81 | 103 | 1.7 | 7.0 | 0.00 | 0.00 | 0.00 | 79 | 1015.0 |
| 20260905180313 | 82 | 16 | 3.5 | 6.1 | 0.00 | 0.00 | 0.00 | 77 | 1015.2 |
| 20260905175808 | 82 | 48 | 4.3 | 7.8 | 0.00 | 0.00 | 0.00 | 77 | 1015.0 |
| 20260905175306 | 83 | 63 | 3.5 | 7.0 | 0.00 | 0.00 | 0.00 | 76 | 1015.1 |
| 20260905174757 | 82 | 107 | 3.5 | 7.0 | 0.00 | 0.00 | 0.00 | 79 | 1014.9 |
| 20260905174253 | 80 | 15 | 6.1 | 7.0 | 0.00 | 0.00 | 0.00 | 81 | 1015.1 |
| 20260905173749 | 80 | 45 | 3.5 | 7.8 | 0.00 | 0.00 | 0.00 | 81 | 1015.0 |
| 20260905173245 | 80 | 71 | 3.5 | 7.8 | 0.00 | 0.00 | 0.00 | 81 | 1014.8 |
| 20260905172744 | 80 | 32 | 2.6 | 3.5 | 0.00 | 0.00 | 0.00 | 80 | 1014.9 |
| 20260905172243 | 81 | 22 | 3.5 | 5.2 | 0.00 | 0.00 | 0.00 | 80 | 1014.9 |
| 20260905171740 | 82 | 190 | 1.7 | 6.1 | 0.00 | 0.00 | 0.00 | 79 | 1015.0 |
| 20260905171236 | 81 | 60 | 2.6 | 6.1 | 0.00 | 0.00 | 0.00 | 80 | 1014.9 |
| 20260905170732 | 81 | 246 | 3.5 | 7.0 | 0.00 | 0.00 | 0.00 | 79 | 1015.0 |
| 20260905170227 | 81 | 142 | 0.9 | 8.7 | 0.00 | 0.00 | 0.00 | 81 | 1015.1 |
| 20260905165721 | 80 | 71 | 3.5 | 6.1 | 0.00 | 0.00 | 0.00 | 82 | 1015.1 |
| 20260905165216 | 80 | 10 | 5.2 | 7.0 | 0.00 | 0.00 | 0.00 | 82 | 1015.0 |
| 20260905164716 | 80 | 101 | 4.3 | 6.1 | 0.00 | 0.00 | 0.00 | 82 | 1015.2 |
| 20260905164216 | 81 | 11 | 2.6 | 3.5 | 0.00 | 0.00 | 0.00 | 81 | 1015.1 |
| 20260905163712 | 81 | 339 | 2.6 | 6.1 | 0.00 | 0.00 | 0.00 | 81 | 1015.2 |
| 20260905163209 | 80 | 26 | 1.7 | 3.5 | 0.00 | 0.00 | 0.00 | 84 | 1015.2 |
| 20260905162704 | 80 | 212 | 2.6 | 2.6 | 0.00 | 0.00 | 0.00 | 83 | 1015.2 |
| 20260905162204 | 80 | 355 | 3.5 | 5.2 | 0.00 | 0.00 | 0.00 | 84 | 1015.2 |
| 20260905161659 | 79 | 29 | 3.5 | 5.2 | 0.00 | 0.00 | 0.00 | 85 | 1015.1 |
| 20260905161156 | 78 | 26 | 2.6 | 3.5 | 0.00 | 0.00 | 0.00 | 86 | 1014.9 |
| 20260905160650 | 78 | 32 | 3.5 | 6.1 | 0.00 | 0.00 | 0.00 | 85 | 1015.0 |
| 20260905160150 | 78 | 55 | 2.6 | 3.5 | 0.00 | 0.00 | 0.00 | 85 | 1015.0 |
| 20260905155650 | 78 | 39 | 1.7 | 2.6 | 0.00 | 0.00 | 0.00 | 87 | 1015.1 |
| 20260905155149 | 78 | 28 | 5.2 | 6.1 | 0.00 | 0.00 | 0.00 | 86 | 1015.3 |
| 20260905154643 | 77 | 101 | 0.0 | 3.5 | 0.00 | 0.00 | 0.00 | 88 | 1015.2 |
| 20260905154139 | 76 | 266 | 0.9 | 2.6 | 0.00 | 0.00 | 0.00 | 89 | 1015.1 |
| 20260905153635 | 76 | 74 | 3.5 | 5.2 | 0.00 | 0.00 | 0.00 | 88 | 1015.2 |
| 20260905153130 | 76 | 170 | 1.7 | 3.5 | 0.00 | 0.00 | 0.00 | 90 | 1015.0 |
| 20260905152625 | 76 | 34 | 2.6 | 3.5 | 0.00 | 0.00 | 0.00 | 91 | 1014.9 |
| 20260905152119 | 75 | 40 | 4.3 | 5.2 | 0.00 | 0.00 | 0.00 | 91 | 1015.0 |
| 20260905151614 | 75 | 53 | 3.5 | 6.1 | 0.00 | 0.00 | 0.00 | 91 | 1014.8 |
| 20260905151110 | 75 | 43 | 2.6 | 7.8 | 0.00 | 0.00 | 0.00 | 91 | 1014.5 |
| 20260905150605 | 75 | 78 | 3.5 | 5.2 | 0.00 | 0.00 | 0.00 | 92 | 1014.6 |
| 20260905150103 | 75 | 82 | 3.5 | 7.0 | 0.00 | 0.00 | 0.00 | 91 | 1014.4 |
| 20260905145602 | 75 | 61 | 1.7 | 6.1 | 0.00 | 0.00 | 0.00 | 93 | 1014.3 |
| 20260905145101 | 75 | 64 | 4.3 | 7.0 | 0.00 | 0.00 | 0.00 | 92 | 1014.6 |
| 20260905144557 | 75 | 43 | 3.5 | 7.0 | 0.00 | 0.00 | 0.00 | 93 | 1014.3 |
| 20260905144055 | 74 | 29 | 3.5 | 6.1 | 0.00 | 0.00 | 0.00 | 94 | 1014.3 |
| 20260905143555 | 74 | 87 | 3.5 | 6.1 | 0.00 | 0.00 | 0.00 | 94 | 1014.1 |
| 20260905143050 | 74 | 45 | 4.3 | 7.8 | 0.00 | 0.00 | 0.00 | 93 | 1014.3 |
| 20260905142550 | 74 | 7 | 4.3 | 7.8 | 0.00 | 0.00 | 0.00 | 94 | 1014.3 |
| 20260905142049 | 73 | 28 | 0.9 | 2.6 | 0.00 | 0.00 | 0.00 | 94 | 1014.3 |
| 20260905141544 | 73 | 72 | 2.6 | 5.2 | 0.00 | 0.00 | 0.00 | 94 | 1014.3 |
| 20260905141041 | 73 | 20 | 3.5 | 6.1 | 0.00 | 0.00 | 0.00 | 95 | 1014.4 |
| 20260905140542 | 73 | 68 | 1.7 | 3.5 | 0.00 | 0.00 | 0.00 | 95 | 1014.3 |
| 20260905140040 | 73 | 63 | 3.5 | 5.2 | 0.00 | 0.00 | 0.00 | 94 | 1014.2 |
| 20260905135536 | 73 | 158 | 0.9 | 1.7 | 0.00 | 0.00 | 0.00 | 95 | 1014.3 |
| 20260905135037 | 73 | 47 | 1.7 | 3.5 | 0.00 | 0.00 | 0.00 | 95 | 1014.3 |
| 20260905134537 | 73 | 99 | 0.9 | 2.6 | 0.00 | 0.00 | 0.00 | 95 | 1014.1 |
| 20260905134035 | 73 | 40 | 4.3 | 5.2 | 0.00 | 0.00 | 0.00 | 95 | 1014.2 |
| 20260905133531 | 73 | 60 | 3.5 | 7.0 | 0.00 | 0.00 | 0.00 | 94 | 1014.1 |
| 20260905133030 | 74 | 44 | 3.5 | 7.8 | 0.00 | 0.00 | 0.00 | 94 | 1014.0 |
| 20260905132530 | 74 | 58 | 3.5 | 6.1 | 0.00 | 0.00 | 0.00 | 93 | 1014.0 |
| 20260905132025 | 75 | 68 | 3.5 | 6.1 | 0.00 | 0.00 | 0.00 | 91 | 1014.1 |
| 20260905131520 | 75 | 63 | 2.6 | 5.2 | 0.00 | 0.00 | 0.00 | 91 | 1014.0 |
| 20260905131016 | 75 | 92 | 1.7 | 3.5 | 0.00 | 0.00 | 0.00 | 91 | 1013.9 |
| 20260905130515 | 75 | 140 | 1.7 | 1.7 | 0.00 | 0.00 | 0.00 | 92 | 1014.1 |
| 20260905130010 | 75 | 69 | 1.7 | 5.2 | 0.00 | 0.00 | 0.00 | 91 | 1013.9 |
| 20260905125504 | 75 | 115 | 1.7 | 2.6 | 0.00 | 0.00 | 0.00 | 92 | 1014.1 |
| 20260905125000 | 75 | 14 | 2.6 | 2.6 | 0.00 | 0.00 | 0.00 | 92 | 1013.7 |
| 20260905124456 | 75 | 354 | 2.6 | 3.5 | 0.00 | 0.00 | 0.00 | 93 | 1013.8 |
| 20260905123952 | 75 | 32 | 2.6 | 2.6 | 0.00 | 0.00 | 0.00 | 93 | 1013.5 |
| 20260905123448 | 74 | 112 | 0.0 | 1.7 | 0.00 | 0.00 | 0.00 | 94 | 1013.4 |
| 20260905122948 | 74 | 83 | 0.9 | 1.7 | 0.00 | 0.00 | 0.00 | 95 | 1013.5 |
| 20260905122448 | 74 | 83 | 0.9 | 1.7 | 0.00 | 0.00 | 0.00 | 96 | 1013.3 |